Regional Weather Roundup
Issued by NWS Green Bay, WI

Home | Current Version | Previous Version | Text Only | Print | Product List | Glossary On
Versions: 1 2 3 4 5 6 7 8 9 10 11 12 13 14 15 16 17 18 19 20 21 22 23 24 25 26 27 28 29 30 31 32 33 34 35 36 37 38 39 40 41 42 43 44 45 46 47 48 49 50
305
ASUS43 KGRB 082011
RWRGRB

NORTH-CENTRAL AND NORTHEAST WISCONSIN REGIONAL WEATHER ROUNDUP
NATIONAL WEATHER SERVICE GREEN BAY WI
200 PM CST MON FEB 08 2016

WIZ005-009-010>012-018-019-082100-
NORTH CENTRAL WISCONSIN

CITY           SKY/WX    TMP DP  RH WIND       PRES   REMARKS
IRONWOOD       CLOUDY    16  12  86 NW14      29.75S WCI   1
MANITOWISH WTR LGT SNOW  16  11  82 N13G20    29.71S WCI   2
ARBOR VITAE    LGT SNOW  19  13  77 NW12G17   29.70R WCI   7
EAGLE RIVER    LGT SNOW  20  13  73 N14       29.67S WCI   7
LAND O LAKES   LGT SNOW  19  14  81 N9        29.69R WCI   7
RHINELANDER    CLOUDY    21  12  68 NW10      29.68R WCI  10
PHILLIPS       LGT SNOW  16  10  75 NW9G16    29.73S WCI   5
ANTIGO         CLOUDY    24  16  72 N13       29.65S
TOMAHAWK       CLOUDY    20  13  72 N9G18     29.71R WCI  10
MERRILL        CLOUDY    24  14  64 N13G18    29.70S
$$

WIZ013-073-082100-
NORTHEAST WISCONSIN

CITY           SKY/WX    TMP DP  RH WIND       PRES   REMARKS
IRON MOUNTAIN  SNOW      22  16  78 NW10      29.66R VSB 1/2
MARINETTE      CLOUDY    27  19  74 N13       29.65R
OCONTO         CLOUDY    28  22  78 N13G20    29.66R
$$

WIZ017-030-035>037-045-082100-
CENTRAL WISCONSIN

CITY           SKY/WX    TMP DP  RH WIND       PRES   REMARKS
MEDFORD        FLURRIES  19  12  77 N16       29.71S WCI   4
WAUSAU         CLOUDY    25  15  66 NW16G23   29.68S
MOSINEE        CLOUDY    25  18  74 NW13      29.70R
MARSHFIELD     CLOUDY    19  10  68 NW18      29.71S WCI   4
WISC RAPIDS    CLOUDY    21  12  68 NW17G24   29.74R WCI   7
STEVENS POINT  CLOUDY    23  17  77 NW10G22   29.70R
WAUPACA        CLOUDY    32  21  63 NW13      29.68R
SHAWANO        CLOUDY    31  21  67 NW14      29.67R
CLINTONVILLE   CLOUDY    30  19  64 NW13G18   29.67R
WAUTOMA        CLOUDY    25  16  68 NW13G24   29.71R
$$

WIZ038-039-048-051-082100-
FOX VALLEY

CITY           SKY/WX    TMP DP  RH WIND       PRES   REMARKS
NWS GREEN BAY  LGT SNOW  30  26  85 N9        29.65R FOG
APPLETON       FLURRIES  28  21  74 W13       29.63R
OSHKOSH        LGT SNOW  28  21  75 W10       29.65S
FOND DU LAC    MIX PCPN  27  21  78 W13       29.66R
$$

WIZ022-050-052-082100-
EAST CENTRAL WISCONSIN

CITY           SKY/WX    TMP DP  RH WIND       PRES   REMARKS
EPHRAIM        CLOUDY    28  26  89 N13G20    29.63R FOG
STURGEON BAY   CLOUDY    28  23  80 N14       29.65R
MANITOWOC      FLURRIES  31  27  85 W10       29.63R
SHEBOYGAN      FLURRIES  27  22  81 NW14      29.63R
$$

LMZ563-521-522-541>543-082100-
LAKESHORE

STATION/POSITION TIME  TEMP    WIND        PRES    VSBY  WAVE
                       AIR SEA DIR/SP/G                  HT/PER
                 (UTC) (F)     (DEG/KT/KT) (MB)    (MI)  (FT/S)
SHEBOYGAN LKSHOR 2000   28     280/ 17/ 19 1004.2R
KEWAUNEE LKSHORE 1900   33     310/ 10/ 13 1002.1F
ALGOMA MARINA    1911          360/ 14/ 20   N/A
NORTHPORT PIER   1900   28     340/ 17/ 23 1004.1R
CHAMBERS ISLAND  1900   29     330/ 14/ 17 1004.1R
MENOMINEE LKSHOR 1900   29     340/ 16     1002.8R
$$




USA.gov is the U.S. government's official web portal to all federal, state and local government web resources and services.